Location: Newark
(44.3248°N, 23.7839°E)
Time: 15:21:43
(UTC+00:00)

CAS-6 - Pass Details

Date: 25 April 2024
Orbit: 607 x 628 km, 97.8° (Epoch: 26 May)

Event Time Altitude Azimuth Distance (km) Brightness Sun altitude
Exits shadow 22:01:24 11° 290° (WNW) 1,950 ? -31.9°
Drops below altitude 10° 22:01:41 10° 293° (WNW) 1,988 ? -31.9°
Sets 22:05:19 0° 325° (NW) 2,895 ? -32.0°
